This is the latest recevied weather packets stored in our database for station/object KC3QLX. If no packets are shown the sender has not sent any weather packets the latest 10 day(s).
| Time | Temp. | Humidity | Pressure | Rain* | Wind** | Luminosity | Snow |
|---|---|---|---|---|---|---|---|
| 1778030502 | 22.78° C | 46% | 1008.5 hPa | 0 mm | - | 0 W/m² | - |
| 1778030200 | 22.78° C | 47% | 1008.1 hPa | 0 mm | - | 0 W/m² | - |
| 1778029896 | 22.78° C | 46% | 1008.3 hPa | 0 mm | - | 0 W/m² | - |
| 1778029595 | 23.33° C | 47% | 1008 hPa | 0 mm | - | 0 W/m² | - |
| 1778029291 | 22.78° C | 46% | 1007.9 hPa | 0 mm | - | 0 W/m² | - |
| 1778028988 | 22.78° C | 48% | 1007.9 hPa | 0 mm | - | 0 W/m² | - |
| 1778028685 | 23.33° C | 48% | 1007.9 hPa | 0 mm | - | 0 W/m² | - |
| 1778028381 | 23.33° C | 47% | 1007.9 hPa | 0 mm | - | 0 W/m² | - |
| 1778028079 | 23.33° C | 47% | 1007.7 hPa | 0 mm | - | 0 W/m² | - |
| 1778027775 | 23.33° C | 47% | 1007.9 hPa | 0 mm | - | 0 W/m² | - |
| 1778027471 | 23.33° C | 47% | 1007.9 hPa | 0 mm | - | 0 W/m² | - |
| 1778027167 | 23.33° C | 47% | 1007.8 hPa | 0 mm | - | 0 W/m² | - |
| 1778026863 | 23.89° C | 46% | 1007.9 hPa | 0 mm | - | 0 W/m² | - |
| 1778026559 | 23.33° C | 47% | 1007.8 hPa | 0 mm | - | 0 W/m² | - |
| 1778026257 | 23.89° C | 47% | 1007.8 hPa | 0 mm | - | 0 W/m² | - |
| 1778025954 | 23.89° C | 47% | 1007.5 hPa | 0 mm | - | 0 W/m² | - |
| 1778025651 | 23.89° C | 46% | 1007.5 hPa | 0 mm | - | 1 W/m² | - |
| 1778025349 | 23.89° C | 46% | 1007.4 hPa | 0 mm | - | 3 W/m² | - |
| 1778025046 | 23.89° C | 46% | 1007.5 hPa | 0 mm | - | 5 W/m² | - |
| 1778024743 | 23.89° C | 45% | 1007.4 hPa | 0 mm | - | 7 W/m² | - |
| 1778024439 | 23.89° C | 45% | 1007.4 hPa | 0 mm | - | 11 W/m² | - |
| 1778024137 | 24.44° C | 45% | 1007.4 hPa | 0 mm | - | 13 W/m² | - |
| 1778023835 | 24.44° C | 44% | 1007.2 hPa | 0 mm | - | 15 W/m² | - |
| 1778023532 | 25° C | 44% | 1007.1 hPa | 0 mm | - | 19 W/m² | - |
| 1778023229 | 25° C | 43% | 1007.1 hPa | 0 mm | - | 25 W/m² | - |
* Rain latest hour (hover to see other rain measurements)
** Current wind speed in m/s (hover to see current wind gust speed)